Location: Ay?beleni
(36.6500°N, 30.3000°E)
Time: 04:40:42
(UTC+00:00)

Cosmos 1953 - Pass Details

Date: 16 October 2021
Orbit: 537 x 556 km, 82.5° (Epoch: 08 December)

Event Time Altitude Azimuth Distance (km) Brightness Sun altitude
Rises 16:33:35 0° 191° (SSW) 2,710 6.0 -15.3°
Reaches altitude 10° 16:35:45 10° 194° (SSW) 1,824 5.1 -15.7°
Maximum altitude 16:39:44 67° 278° (W) 602 2.7 -16.5°
Drops below altitude 10° 16:43:47 10° 1° (N) 1,846 5.0 -17.4°
Sets 16:45:59 0° 4° (N) 2,746 5.9 -17.8°
